EW2142 Weather Reports


time (UTC)temp
F
wind
direction
speed
knots
gust
knots
rain 1hr
in
rain 24hr
in
rain mn
in
humidity
%
barometer
mb
20260507213524 41 0 0.0 0.0 0.00 0.00 0.00 63 1019.2
20260507213003 41 0 0.0 0.0 0.00 0.00 0.00 63 1019.2
20260507212503 41 0 0.0 0.0 0.00 0.00 0.00 62 1019.1
20260507212003 42 0 0.0 0.0 0.00 0.00 0.00 62 1019.1
20260507211503 42 0 0.0 0.0 0.00 0.00 0.00 61 1019.0
20260507211002 42 0 0.0 0.0 0.00 0.00 0.00 61 1019.0
20260507210503 42 0 0.0 0.0 0.00 0.00 0.00 61 1018.9
20260507210003 42 0 0.0 0.0 0.00 0.00 0.00 61 1018.9
20260507205524 42 0 0.0 0.0 0.00 0.00 0.00 59 1018.8
20260507205003 43 0 0.0 0.0 0.00 0.00 0.00 58 1018.8
20260507204503 43 0 0.0 0.0 0.00 0.00 0.00 58 1018.8
20260507204003 44 0 0.0 0.0 0.00 0.00 0.00 58 1018.8
20260507203503 44 0 0.0 0.0 0.00 0.00 0.00 58 1018.7
20260507203003 44 0 0.0 0.0 0.00 0.00 0.00 56 1018.6
20260507202503 44 0 0.0 0.0 0.00 0.00 0.00 55 1018.6
20260507202003 45 0 0.0 0.0 0.00 0.00 0.00 54 1018.6
20260507201503 45 0 0.0 0.0 0.00 0.00 0.00 53 1018.6
20260507201002 46 0 0.0 0.0 0.00 0.00 0.00 53 1018.6
20260507200524 46 0 0.0 0.0 0.00 0.00 0.00 53 1018.5
20260507200003 46 0 0.0 0.0 0.00 0.00 0.00 52 1018.5
20260507195524 46 0 0.0 0.0 0.00 0.00 0.00 52 1018.5
20260507195003 46 0 0.0 0.0 0.00 0.00 0.00 51 1018.4
20260507194503 47 0 0.0 0.0 0.00 0.00 0.00 50 1018.3
20260507194024 47 0 0.0 0.0 0.00 0.00 0.00 49 1018.3
20260507193503 47 0 0.0 0.0 0.00 0.00 0.00 49 1018.3
20260507193003 48 0 0.0 0.0 0.00 0.00 0.00 48 1018.2
20260507192503 48 0 0.0 0.0 0.00 0.00 0.00 48 1018.1
20260507192003 49 0 0.0 0.0 0.00 0.00 0.00 47 1018.0
20260507191503 49 0 0.0 0.0 0.00 0.00 0.00 46 1018.0
20260507191024 50 0 0.0 0.0 0.00 0.00 0.00 45 1018.0
20260507190503 50 0 0.0 0.0 0.00 0.00 0.00 44 1017.8
20260507190004 50 0 0.0 0.0 0.00 0.00 0.00 42 1017.8
20260507185503 51 0 0.0 0.0 0.00 0.00 0.00 41 1017.7
20260507185003 52 0 0.0 0.0 0.00 0.00 0.00 41 1017.6
20260507184503 52 0 0.0 0.0 0.00 0.00 0.00 40 1017.5
20260507184003 53 0 0.0 0.0 0.00 0.00 0.00 38 1017.5
20260507183503 54 336 0.0 0.9 0.00 0.00 0.00 36 1017.5
20260507183024 54 336 0.0 0.9 0.00 0.00 0.00 36 1017.4
20260507182503 55 311 0.0 0.9 0.00 0.00 0.00 36 1017.4
20260507182003 55 307 0.0 1.7 0.00 0.00 0.00 33 1017.3
20260507181503 56 309 0.0 1.7 0.00 0.00 0.00 32 1017.3
20260507181003 57 306 0.0 2.6 0.00 0.00 0.00 31 1017.3
20260507180502 58 300 0.0 2.6 0.00 0.00 0.00 29 1017.3
20260507180003 60 297 0.0 1.7 0.00 0.00 0.00 28 1017.3
20260507175503 60 323 0.0 0.9 0.00 0.00 0.00 27 1017.2
20260507175003 61 294 0.0 0.9 0.00 0.00 0.00 26 1017.2
20260507174503 60 289 0.0 1.7 0.00 0.00 0.00 27 1017.1
20260507174003 61 296 0.0 1.7 0.00 0.00 0.00 26 1017.1
20260507173503 62 300 0.0 1.7 0.00 0.00 0.00 24 1017.0
20260507173003 63 60 0.0 0.9 0.00 0.00 0.00 25 1017.1
20260507172503 63 127 0.0 0.9 0.00 0.00 0.00 24 1017.0
20260507172003 63 277 0.0 0.9 0.00 0.00 0.00 26 1017.0
20260507171503 61 302 0.0 3.5 0.00 0.00 0.00 27 1017.0
20260507171003 61 306 0.9 3.5 0.00 0.00 0.00 26 1017.0
20260507170503 62 314 0.9 4.3 0.00 0.00 0.00 25 1016.9
20260507170003 62 317 0.0 4.3 0.00 0.00 0.00 26 1016.9
20260507165502 63 314 0.0 1.7 0.00 0.00 0.00 25 1016.8
20260507165003 63 321 0.0 2.6 0.00 0.00 0.00 24 1016.8
20260507164503 63 322 0.0 2.6 0.00 0.00 0.00 25 1016.8
20260507164003 63 316 0.0 4.3 0.00 0.00 0.00 25 1016.7
20260507163503 63 306 0.0 4.3 0.00 0.00 0.00 24 1016.7
20260507163024 64 289 0.0 1.7 0.00 0.00 0.00 24 1016.6
20260507162503 63 302 0.9 4.3 0.00 0.00 0.00 24 1016.6
20260507162003 64 302 0.0 4.3 0.00 0.00 0.00 23 1016.6
20260507161503 64 260 0.0 0.9 0.00 0.00 0.00 25 1016.6
20260507161024 64 296 0.0 4.3 0.00 0.00 0.00 25 1016.6
20260507160503 63 295 0.0 4.3 0.00 0.00 0.00 24 1016.6
20260507160002 63 307 0.9 9.6 0.00 0.00 0.00 25 1016.6
20260507155503 63 312 0.9 9.6 0.00 0.00 0.00 26 1016.5
20260507155024 64 307 0.0 3.5 0.00 0.00 0.00 25 1016.5
20260507154503 63 305 0.9 2.6 0.00 0.00 0.00 27 1016.6
20260507154003 63 301 0.0 2.6 0.00 0.00 0.00 25 1016.5
20260507153503 63 299 0.9 3.5 0.00 0.00 0.00 26 1016.5
20260507153003 62 309 0.9 4.3 0.00 0.00 0.00 27 1016.5
20260507152503 63 313 0.9 4.3 0.00 0.00 0.00 25 1016.5
20260507152024 63 301 0.9 2.6 0.00 0.00 0.00 26 1016.4
20260507151503 63 292 0.9 4.3 0.00 0.00 0.00 26 1016.4
20260507151003 62 302 0.9 4.3 0.00 0.00 0.00 27 1016.3
20260507150502 62 305 0.9 4.3 0.00 0.00 0.00 26 1016.4
20260507150003 62 312 0.9 7.8 0.00 0.00 0.00 26 1016.3
20260507145503 63 315 0.9 7.8 0.00 0.00 0.00 25 1016.4
20260507145003 62 304 1.7 6.1 0.00 0.00 0.00 27 1016.3
20260507144502 63 297 1.7 6.1 0.00 0.00 0.00 25 1016.3
20260507144003 64 298 0.9 4.3 0.00 0.00 0.00 24 1016.3
20260507143524 65 303 0.9 3.5 0.00 0.00 0.00 25 1016.3
20260507143003 65 286 0.0 2.6 0.00 0.00 0.00 27 1016.2
20260507142524 64 292 0.9 4.3 0.00 0.00 0.00 26 1016.2
20260507142003 64 288 0.9 4.3 0.00 0.00 0.00 27 1016.1
20260507141503 64 290 0.9 5.2 0.00 0.00 0.00 29 1016.2
20260507141003 64 287 0.9 5.2 0.00 0.00 0.00 27 1016.1
20260507140523 64 272 0.0 3.5 0.00 0.00 0.00 25 1016.1
20260507140024 63 294 0.9 3.5 0.00 0.00 0.00 27 1016.1
20260507135524 64 301 0.9 3.5 0.00 0.00 0.00 27 1016.2
20260507135024 64 305 0.9 3.5 0.00 0.00 0.00 28 1016.1
20260507134503 63 315 0.9 6.1 0.00 0.00 0.00 30 1016.1
20260507134003 63 303 0.9 6.1 0.00 0.00 0.00 27 1016.1
20260507133503 64 283 0.9 4.3 0.00 0.00 0.00 26 1016.1
20260507133024 64 308 0.0 3.5 0.00 0.00 0.00 30 1016.0
20260507132503 63 309 0.9 5.2 0.00 0.00 0.00 28 1016.0
20260507132024 64 301 0.9 5.2 0.00 0.00 0.00 29 1016.1
20260507131503 64 292 0.9 3.5 0.00 0.00 0.00 30 1016.1
20260507131003 64 300 0.9 4.3 0.00 0.00 0.00 30 1016.0
20260507130503 62 311 0.9 5.2 0.00 0.00 0.00 33 1016.1
20260507130003 62 312 0.9 6.1 0.00 0.00 0.00 29 1016.0
20260507125503 63 314 0.9 6.1 0.00 0.00 0.00 31 1016.0
20260507125002 63 308 0.9 3.5 0.00 0.00 0.00 30 1015.9
20260507124503 62 308 1.7 6.1 0.00 0.00 0.00 34 1015.9
20260507124024 62 309 0.9 6.1 0.00 0.00 0.00 31 1015.9
20260507123503 62 308 0.9 3.5 0.00 0.00 0.00 31 1015.9
20260507123024 62 303 0.9 5.2 0.00 0.00 0.00 32 1015.9
20260507122503 63 293 0.9 5.2 0.00 0.00 0.00 30 1015.8
20260507122024 64 276 0.9 3.5 0.00 0.00 0.00 32 1015.7
20260507121503 62 310 0.9 6.1 0.00 0.00 0.00 32 1015.7
20260507121003 62 311 0.9 6.1 0.00 0.00 0.00 31 1015.7
20260507120503 62 308 0.9 5.2 0.00 0.00 0.00 32 1015.7
20260507120003 62 306 0.9 5.2 0.00 0.00 0.00 32 1015.6
20260507115503 62 307 0.9 7.0 0.00 0.00 0.00 34 1015.7
20260507115003 63 307 0.9 7.0 0.00 0.00 0.00 31 1015.6
20260507114503 64 298 0.0 3.5 0.00 0.00 0.00 34 1015.6
20260507114002 64 302 0.0 3.5 0.00 0.00 0.00 33 1015.6
20260507113503 63 317 0.0 1.7 0.00 0.00 0.00 33 1015.6
20260507113003 63 305 0.0 3.5 0.00 0.00 0.00 35 1015.6
20260507112503 62 262 0.0 5.2 0.00 0.00 0.00 38 1015.7
20260507112024 61 236 0.9 5.2 0.00 0.00 0.00 38 1015.7
20260507111503 61 286 0.9 4.3 0.00 0.00 0.00 36 1015.7
20260507111003 61 289 0.9 4.3 0.00 0.00 0.00 38 1015.7
20260507110503 62 268 0.9 3.5 0.00 0.00 0.00 40 1015.6
20260507110003 61 279 0.0 2.6 0.00 0.00 0.00 41 1015.7
20260507105503 60 278 0.0 2.6 0.00 0.00 0.00 42 1015.6
20260507105002 60 297 0.9 4.3 0.00 0.00 0.00 42 1015.6
20260507104503 59 302 0.9 5.2 0.00 0.00 0.00 41 1015.7
20260507104003 60 305 0.9 5.2 0.00 0.00 0.00 42 1015.7
20260507103523 60 305 0.9 4.3 0.00 0.00 0.00 41 1015.7
20260507103003 60 303 0.0 3.5 0.00 0.00 0.00 41 1015.7
20260507102503 60 314 0.0 1.7 0.00 0.00 0.00 42 1015.6
20260507102003 59 306 0.0 3.5 0.00 0.00 0.00 42 1015.6
20260507101503 59 308 0.9 3.5 0.00 0.00 0.00 42 1015.5
20260507101024 59 314 0.0 3.5 0.00 0.00 0.00 44 1015.5
20260507100503 58 309 0.9 6.1 0.00 0.00 0.00 46 1015.5
20260507100024 58 311 0.9 6.1 0.00 0.00 0.00 43 1015.5
20260507095503 58 324 0.0 4.3 0.00 0.00 0.00 45 1015.4
20260507095003 58 326 0.0 2.6 0.00 0.00 0.00 49 1015.4
20260507094503 58 282 0.0 2.6 0.00 0.00 0.00 48 1015.3
20260507094003 58 285 0.0 1.7 0.00 0.00 0.00 48 1015.2
20260507093503 58 301 0.9 3.5 0.00 0.00 0.00 49 1015.2
20260507093024 57 314 0.9 3.5 0.00 0.00 0.00 51 1015.2
20260507092503 56 311 0.9 4.3 0.00 0.00 0.00 55 1015.1
20260507092003 56 308 0.9 3.5 0.00 0.00 0.00 53 1015.1
20260507091503 56 307 0.0 3.5 0.00 0.00 0.00 55 1015.2
20260507091003 55 309 0.0 3.5 0.00 0.00 0.00 56 1015.2
20260507090503 55 307 0.0 3.5 0.00 0.00 0.00 58 1015.1
20260507090003 55 309 0.9 6.1 0.00 0.00 0.00 56 1015.2
20260507085502 55 309 0.9 6.1 0.00 0.00 0.00 56 1015.2
20260507085002 56 271 0.0 0.9 0.00 0.00 0.00 58 1015.2
20260507084503 55 309 0.0 4.3 0.00 0.00 0.00 58 1015.2
20260507084003 55 309 0.0 4.3 0.00 0.00 0.00 59 1015.2
20260507083502 55 303 0.0 1.7 0.00 0.00 0.00 58 1015.2
20260507083004 54 319 0.0 4.3 0.00 0.00 0.00 61 1015.2
20260507082503 54 317 0.0 4.3 0.00 0.00 0.00 61 1015.2
20260507082024 54 311 0.0 2.6 0.00 0.00 0.00 61 1015.2
20260507081503 54 312 0.0 2.6 0.00 0.00 0.00 60 1015.1
20260507081003 54 294 0.0 1.7 0.00 0.00 0.00 63 1015.0
20260507080503 54 306 0.0 3.5 0.00 0.00 0.00 62 1015.0
20260507080003 53 311 0.0 3.5 0.00 0.00 0.00 63 1015.0
20260507075503 53 306 0.0 2.6 0.00 0.00 0.00 63 1014.9
20260507075003 53 308 0.0 2.6 0.00 0.00 0.00 61 1014.9
20260507074502 53 311 0.0 1.7 0.00 0.00 0.00 63 1014.9
20260507074003 52 296 0.0 1.7 0.00 0.00 0.00 63 1014.8
20260507073503 52 297 0.0 1.7 0.00 0.00 0.00 63 1014.8
20260507073003 51 305 0.0 2.6 0.00 0.00 0.00 61 1014.8
20260507072503 50 306 0.9 3.5 0.00 0.00 0.00 60 1014.8
20260507072003 50 314 0.9 3.5 0.00 0.00 0.00 62 1014.8
20260507071524 50 319 0.0 2.6 0.00 0.00 0.00 63 1014.8
20260507071003 50 318 0.0 0.9 0.00 0.00 0.00 65 1014.7
20260507070503 49 285 0.0 1.7 0.00 0.00 0.00 66 1014.7
20260507070007 48 310 0.0 2.6 0.00 0.00 0.00 66 1014.7
20260507065503 48 301 0.0 2.6 0.00 0.00 0.00 66 1014.7
20260507065002 48 188 0.0 1.7 0.00 0.00 0.00 65 1014.7
20260507064502 47 305 0.0 1.7 0.00 0.00 0.00 65 1014.7
20260507064003 46 312 0.0 2.6 0.00 0.00 0.00 64 1014.7
20260507063503 46 308 0.0 2.6 0.00 0.00 0.00 63 1014.6
20260507063002 44 247 0.0 1.7 0.00 0.00 0.00 59 1014.6
20260507062503 42 214 0.0 0.9 0.00 0.00 0.00 55 1014.5
20260507062003 41 0 0.0 0.0 0.00 0.00 0.00 55 1014.5
20260507061503 41 0 0.0 0.0 0.00 0.00 0.00 54 1014.5
20260507061003 40 0 0.0 0.0 0.00 0.00 0.00 53 1014.5
20260507060503 40 0 0.0 0.0 0.00 0.00 0.00 51 1014.5
20260507060025 39 0 0.0 0.0 0.00 0.00 0.00 49 1014.4
20260507055503 38 0 0.0 0.0 0.00 0.00 0.00 46 1014.4
20260507055003 38 0 0.0 0.0 0.00 0.00 0.00 41 1014.3
20260507054502 38 0 0.0 0.0 0.00 0.00 0.00 37 1014.4
20260507054024 37 0 0.0 0.0 0.00 0.00 0.00 33 1014.4
20260507053503 36 0 0.0 0.0 0.00 0.00 0.00 29 1014.3
20260507053003 36 0 0.0 0.0 0.00 0.00 0.00 26 1014.3
20260507052503 35 0 0.0 0.0 0.00 0.00 0.00 19 1014.2
20260507052003 35 0 0.0 0.0 0.00 0.00 0.00 16 1014.2
20260507051503 34 0 0.0 0.0 0.00 0.00 0.00 16 1014.1
20260507051003 34 0 0.0 0.0 0.00 0.00 0.00 17 1014.1
20260507050503 33 0 0.0 0.0 0.00 0.00 0.00 16 1014.0
20260507050003 33 0 0.0 0.0 0.00 0.00 0.00 17 1014.0
20260507045502 33 0 0.0 0.0 0.00 0.00 0.00 17 1014.0
20260507045002 32 0 0.0 0.0 0.00 0.00 0.00 19 1013.9
20260507044503 32 0 0.0 0.0 0.00 0.00 0.00 20 1013.9
20260507044003 32 0 0.0 0.0 0.00 0.00 0.00 21 1013.8
20260507043523 32 0 0.0 0.0 0.00 0.00 0.00 21 1013.9
20260507043003 32 0 0.0 0.0 0.00 0.00 0.00 21 1013.8
20260507042524 32 0 0.0 0.0 0.00 0.00 0.00 21 1013.8
20260507042003 31 0 0.0 0.0 0.00 0.00 0.00 21 1013.8
20260507041524 31 0 0.0 0.0 0.00 0.00 0.00 23 1013.8
20260507041024 31 0 0.0 0.0 0.00 0.00 0.00 25 1013.7
20260507040503 31 0 0.0 0.0 0.00 0.00 0.00 27 1013.7
20260507040003 31 0 0.0 0.0 0.00 0.00 0.00 29 1013.7
20260507035503 31 0 0.0 0.0 0.00 0.00 0.00 29 1013.7
20260507035002 31 0 0.0 0.0 0.00 0.00 0.00 28 1013.6
20260507034503 31 0 0.0 0.0 0.00 0.00 0.00 28 1013.5
20260507034003 31 0 0.0 0.0 0.00 0.00 0.00 30 1013.6
20260507033524 30 0 0.0 0.0 0.00 0.00 0.00 32 1013.6
20260507033003 30 0 0.0 0.0 0.00 0.00 0.00 33 1013.6
20260507032503 30 0 0.0 0.0 0.00 0.00 0.00 35 1013.5
20260507032024 30 0 0.0 0.0 0.00 0.00 0.00 36 1013.6
20260507031503 30 0 0.0 0.0 0.00 0.00 0.00 37 1013.6
20260507031003 30 0 0.0 0.0 0.00 0.00 0.00 37 1013.6
20260507030503 30 0 0.0 0.0 0.00 0.00 0.00 38 1013.5
20260507030003 31 0 0.0 0.0 0.00 0.00 0.00 39 1013.5
20260507025503 31 0 0.0 0.0 0.00 0.00 0.00 39 1013.5
20260507025003 31 0 0.0 0.0 0.00 0.00 0.00 39 1013.5
20260507024503 31 0 0.0 0.0 0.00 0.00 0.00 40 1013.4
20260507024023 31 0 0.0 0.0 0.00 0.00 0.00 41 1013.4
20260507023503 31 0 0.0 0.0 0.00 0.00 0.00 41 1013.4
20260507023003 31 0 0.0 0.0 0.00 0.00 0.00 41 1013.3
20260507022503 31 0 0.0 0.0 0.00 0.00 0.00 41 1013.3
20260507022024 32 0 0.0 0.0 0.00 0.00 0.00 42 1013.2
20260507021524 32 0 0.0 0.0 0.00 0.00 0.00 41 1013.2
20260507021003 32 0 0.0 0.0 0.00 0.00 0.00 40 1013.2
20260507020503 32 0 0.0 0.0 0.00 0.00 0.00 40 1013.2
20260507020003 32 0 0.0 0.0 0.00 0.00 0.00 42 1013.1
20260507015503 32 0 0.0 0.0 0.00 0.00 0.00 44 1013.1
20260507015003 32 0 0.0 0.0 0.00 0.00 0.00 45 1013.1
20260507014503 32 0 0.0 0.0 0.00 0.00 0.00 47 1013.1
20260507014002 32 0 0.0 0.0 0.00 0.00 0.00 49 1013.0
20260507013503 32 0 0.0 0.0 0.00 0.00 0.00 49 1013.0
20260507013024 32 0 0.0 0.0 0.00 0.00 0.00 51 1013.0
20260507012503 32 0 0.0 0.0 0.00 0.00 0.00 51 1013.0
20260507012003 33 0 0.0 0.0 0.00 0.00 0.00 52 1012.9
20260507011524 33 0 0.0 0.0 0.00 0.00 0.00 52 1012.9
20260507010503 33 0 0.0 0.0 0.00 0.00 0.00 54 1013.0
20260507010024 33 0 0.0 0.0 0.00 0.00 0.00 53 1012.9
20260507005503 33 0 0.0 0.0 0.00 0.00 0.00 55 1012.9
20260507005003 33 0 0.0 0.0 0.00 0.00 0.00 56 1012.9
20260507004503 33 0 0.0 0.0 0.00 0.00 0.00 56 1012.9
20260507004003 33 0 0.0 0.0 0.00 0.00 0.00 56 1012.9
20260507003503 34 0 0.0 0.0 0.00 0.00 0.00 58 1012.8
20260507003003 34 0 0.0 0.0 0.00 0.00 0.00 59 1012.8
20260507002503 34 0 0.0 0.0 0.00 0.00 0.00 60 1012.8
20260507002003 34 0 0.0 0.0 0.00 0.00 0.00 60 1012.8
20260507001503 34 0 0.0 0.0 0.00 0.00 0.00 61 1012.8
20260507001003 34 0 0.0 0.0 0.00 0.00 0.00 62 1012.7
20260507000503 34 0 0.0 0.0 0.00 0.00 0.00 63 1012.7
20260507000004 34 0 0.0 0.0 0.00 0.00 0.00 63 1012.7
20260506235503 34 0 0.0 0.0 0.00 0.00 0.00 64 1012.6
20260506235003 34 0 0.0 0.0 0.00 0.00 0.00 65 1012.7
20260506234502 35 0 0.0 0.0 0.00 0.00 0.00 65 1012.6
20260506234003 35 0 0.0 0.0 0.00 0.00 0.00 66 1012.7
20260506233524 35 0 0.0 0.0 0.00 0.00 0.00 67 1012.7
20260506233003 35 0 0.0 0.0 0.00 0.00 0.00 67 1012.7
20260506232503 35 0 0.0 0.0 0.00 0.00 0.00 68 1012.6
20260506232003 35 0 0.0 0.0 0.00 0.00 0.00 69 1012.6
20260506231503 36 0 0.0 0.0 0.00 0.00 0.00 69 1012.6
20260506231003 36 0 0.0 0.0 0.00 0.00 0.00 69 1012.5
20260506230503 36 0 0.0 0.0 0.00 0.00 0.00 69 1012.5
20260506230003 36 0 0.0 0.0 0.00 0.00 0.00 69 1012.5
20260506225503 36 0 0.0 0.0 0.00 0.00 0.00 69 1012.3
20260506225024 36 0 0.0 0.0 0.00 0.00 0.00 70 1012.3
20260506224502 36 0 0.0 0.0 0.00 0.00 0.00 70 1012.2
20260506224003 37 0 0.0 0.0 0.00 0.00 0.00 70 1012.2
20260506223502 37 0 0.0 0.0 0.00 0.00 0.00 70 1012.2
20260506223003 37 0 0.0 0.0 0.00 0.00 0.00 70 1012.2
20260506222503 37 0 0.0 0.0 0.00 0.00 0.00 70 1012.2
20260506222003 37 0 0.0 0.0 0.00 0.00 0.00 70 1012.1
20260506221504 38 0 0.0 0.0 0.00 0.00 0.00 70 1012.1
20260506221003 38 0 0.0 0.0 0.00 0.00 0.00 70 1012.1
20260506220503 38 0 0.0 0.0 0.00 0.00 0.00 70 1012.0
20260506220005 38 0 0.0 0.0 0.00 0.00 0.00 70 1012.1
20260506215503 38 0 0.0 0.0 0.00 0.00 0.00 70 1012.0
20260506215023 38 0 0.0 0.0 0.00 0.00 0.00 70 1012.0
20260506214503 38 0 0.0 0.0 0.00 0.00 0.00 70 1011.9
20260506214003 38 0 0.0 0.0 0.00 0.00 0.00 70 1011.9